This is the latest recevied weather packets stored in our database for station/object EA7RX-4. If no packets are shown the sender has not sent any weather packets the latest 10 day(s).
| Time | Temp. | Humidity | Pressure | Rain* | Wind** | Luminosity | Snow |
|---|---|---|---|---|---|---|---|
| 1787865603 | 16.67° C | 59% | 1017 hPa | 0 mm | - | 0 W/m² | - |
| 1787865003 | 16.67° C | 60% | 1016.9 hPa | 0 mm | - | 0 W/m² | - |
| 1787864403 | 16.67° C | 60% | 1016.9 hPa | 0 mm | - | 0 W/m² | - |
| 1787863803 | 16.67° C | 60% | 1017 hPa | 0 mm | - | 0 W/m² | - |
| 1787863203 | 16.67° C | 61% | 1016.7 hPa | 0 mm | - | 0 W/m² | - |
| 1787862603 | 16.67° C | 60% | 1016.7 hPa | 0 mm | - | 0 W/m² | - |
| 1787862003 | 16.67° C | 60% | 1016.5 hPa | 0 mm | - | 0 W/m² | - |
| 1787861403 | 16.67° C | 60% | 1016.3 hPa | 0 mm | - | 0 W/m² | - |
| 1787860803 | 16.67° C | 59% | 1016.1 hPa | 0 mm | - | 0 W/m² | - |
| 1787860203 | 16.67° C | 59% | 1016.1 hPa | 0 mm | - | 0 W/m² | - |
| 1787859603 | 16.67° C | 60% | 1015.9 hPa | 0 mm | - | 0 W/m² | - |
| 1787859003 | 16.67° C | 61% | 1015.8 hPa | 0 mm | - | 0 W/m² | - |
| 1787858403 | 16.67° C | 63% | 1015.7 hPa | 0 mm | - | 0 W/m² | - |
| 1787857803 | 16.67° C | 63% | 1015.4 hPa | 0 mm | - | 0 W/m² | - |
| 1787857203 | 17.22° C | 62% | 1015.3 hPa | 0 mm | - | 2 W/m² | - |
| 1787856603 | 17.22° C | 63% | 1015.1 hPa | 0 mm | - | 7 W/m² | - |
| 1787856003 | 17.22° C | 62% | 1015.3 hPa | 0 mm | - | 25 W/m² | - |
| 1787855403 | 17.22° C | 61% | 1014.9 hPa | 0 mm | - | 43 W/m² | - |
| 1787854803 | 17.22° C | 61% | 1015.2 hPa | 0 mm | - | 62 W/m² | - |
| 1787854203 | 19.44° C | 54% | 1014.8 hPa | 0 mm | - | 86 W/m² | - |
| 1787853603 | 18.89° C | 51% | 1014.8 hPa | 0 mm | - | 46 W/m² | - |
| 1787853003 | 18.89° C | 51% | 1014.9 hPa | 0 mm | - | 17 W/m² | - |
| 1787852403 | 18.89° C | 50% | 1014.5 hPa | 0 mm | - | 16 W/m² | - |
| 1787851803 | 19.44° C | 50% | 1014.9 hPa | 0 mm | - | 64 W/m² | - |
| 1787851203 | 19.44° C | 50% | 1014.8 hPa | 0 mm | - | 88 W/m² | - |
* Rain latest hour (hover to see other rain measurements)
** Current wind speed in m/s (hover to see current wind gust speed)